Date String (YYYY-MM-DD hh:mm:ss) UTC,Instrument flags,Ambient pressure (hPa),Sample flow (lpm),Bypass flow (lpm),Sample temperature (°C),Ambient temperature (°C),ASC tube jacket temperature (°C),LED temperature (°C),Box temperature (°C),Sample RH (%),Span deviation,Mass concentration (μg/m³),Mass concentration (μg/m³),Mass concentration (μg/m³)
DateTimeUTC,F1_M11,P_M11,Q1_M11,Q2_M11,T1_M11,T2_M11,T3_M11,T4_M11,T5_M11,U1_M11,ZSPAN_M11,X0_M11,X2_M11,X1_M11
2022-05-15 09:00:00,,0829.1,5.01,0.00,29.8,28.9,00.0,38.8,31.5,10.8,0000.0,0009.63,0003.54,0002.20
2022-05-15 09:01:00,,0828.7,5.00,0.00,29.7,28.9,00.0,38.8,31.5,10.8,0000.0,0009.86,0003.61,0002.20
2022-05-15 09:02:00,,0829.0,4.99,0.00,29.8,28.9,00.0,38.8,31.5,10.8,0000.0,0010.18,0003.68,0002.20
2022-05-15 09:03:00,,0829.0,4.99,0.00,29.7,28.9,00.0,38.8,31.5,10.9,0000.0,0010.12,0003.68,0002.19
2022-05-15 09:04:00,,0829.0,5.01,0.00,29.7,28.9,00.0,38.8,31.5,10.9,0000.0,0009.94,0003.67,0002.19
2022-05-15 09:05:00,,0828.9,5.00,0.00,29.7,28.9,00.0,38.8,31.5,10.9,0000.0,0008.75,0003.69,0002.18
2022-05-15 09:06:00,,0828.7,5.00,0.00,29.7,28.9,00.0,38.8,31.5,10.9,0000.0,0008.67,0003.70,0002.18
2022-05-15 09:07:00,,0828.5,5.00,0.00,29.7,28.9,00.0,38.8,31.5,11.0,0000.0,0008.73,0003.70,0002.17
2022-05-15 09:08:00,,0828.6,4.99,0.00,29.7,28.8,00.0,38.7,31.5,11.0,0000.0,0008.62,0003.70,0002.17
2022-05-15 09:09:00,,0828.6,5.01,0.00,29.7,28.8,00.0,38.7,31.4,11.2,0000.0,0008.63,0003.70,0002.17
2022-05-15 09:10:00,,0828.6,5.00,0.00,29.7,28.8,00.0,38.7,31.4,11.4,0000.0,0009.23,0003.75,0002.20
2022-05-15 09:11:00,,0828.6,4.98,0.00,29.7,28.8,00.0,38.7,31.4,11.4,0000.0,0009.55,0003.79,0002.25
2022-05-15 09:12:00,,0828.6,5.00,0.00,29.7,28.9,00.0,38.7,31.4,11.4,0000.0,0009.56,0003.82,0002.28
2022-05-15 09:13:00,,0828.6,5.00,0.00,29.7,28.8,00.0,38.7,31.4,11.5,0000.0,0009.47,0003.83,0002.32
2022-05-15 09:14:00,,0828.6,5.01,0.00,29.6,28.8,00.0,38.7,31.4,11.5,0000.0,0009.97,0003.88,0002.37
2022-05-15 09:15:00,,0828.7,5.01,0.00,29.6,28.8,00.0,38.7,31.4,11.6,0000.0,0010.96,0003.95,0002.40
2022-05-15 09:16:00,,0828.8,4.99,0.00,29.6,28.8,00.0,38.7,31.4,11.5,0000.0,0011.23,0003.93,0002.42
2022-05-15 09:17:00,,0828.6,4.99,0.00,29.6,28.8,00.0,38.7,31.4,11.6,0000.0,0011.17,0003.94,0002.45
2022-05-15 09:18:00,,0828.6,5.00,0.00,29.6,28.8,00.0,38.7,31.4,11.5,0000.0,0011.73,0004.00,0002.48
2022-05-15 09:19:00,,0828.6,5.01,0.00,29.6,28.8,00.0,38.7,31.3,11.5,0000.0,0011.69,0003.99,0002.52
2022-05-15 09:20:00,,0828.6,4.99,0.00,29.6,28.8,00.0,38.7,31.3,11.5,0000.0,0012.69,0004.00,0002.55
2022-05-15 09:21:00,,0828.6,5.01,0.00,29.6,28.8,00.0,38.6,31.3,11.6,0000.0,0012.64,0003.99,0002.56
2022-05-15 09:22:00,,0828.6,5.00,0.00,29.6,28.8,00.0,38.6,31.3,11.6,0000.0,0012.75,0004.01,0002.54
2022-05-15 09:23:00,,0828.6,4.99,0.00,29.5,28.8,00.0,38.6,31.3,11.6,0000.0,0012.86,0003.97,0002.53
2022-05-15 09:24:00,,0828.5,5.00,0.00,29.5,28.8,00.0,38.6,31.2,11.6,0000.0,0013.01,0003.95,0002.51
2022-05-15 09:25:00,,0828.6,5.01,0.00,29.5,28.7,00.0,38.6,31.2,11.6,0000.0,0012.55,0003.84,0002.47
2022-05-15 09:26:00,,0828.6,5.00,0.00,29.5,28.7,00.0,38.6,31.2,11.5,0000.0,0011.61,0003.78,0002.47
2022-05-15 09:27:00,,0828.8,4.99,0.00,29.5,28.7,00.0,38.6,31.1,11.4,0000.0,0011.29,0003.78,0002.47
2022-05-15 09:28:00,,0828.5,5.01,0.00,29.5,28.7,00.0,38.6,31.1,11.4,0000.0,0011.34,0003.79,0002.46
2022-05-15 09:29:00,,0828.7,5.01,0.00,29.4,28.7,00.0,38.5,31.1,11.3,0000.0,0011.36,0003.82,0002.45
2022-05-15 09:30:00,,0828.7,4.98,0.00,29.4,28.7,00.0,38.5,31.1,11.4,0000.0,0012.04,0003.85,0002.43
2022-05-15 09:31:00,,0828.8,5.01,0.00,29.4,28.7,00.0,38.5,31.2,11.5,0000.0,0011.65,0003.84,0002.41
2022-05-15 09:32:00,,0828.9,5.00,0.00,29.4,28.7,00.0,38.5,31.2,11.5,0000.0,0011.29,0003.83,0002.38
2022-05-15 09:33:00,,0828.7,5.00,0.00,29.4,28.7,00.0,38.5,31.2,11.6,0000.0,0011.34,0003.86,0002.37
2022-05-15 09:34:00,,0828.7,5.00,0.00,29.4,28.7,00.0,38.5,31.2,11.5,0000.0,0011.92,0003.91,0002.39
2022-05-15 09:35:00,,0828.7,5.01,0.00,29.4,28.7,00.0,38.5,31.2,11.4,0000.0,0012.62,0003.93,0002.40
2022-05-15 09:36:00,,0828.7,5.00,0.00,29.4,28.7,00.0,38.5,31.2,11.4,0000.0,0012.64,0003.98,0002.41
2022-05-15 09:37:00,,0828.7,4.99,0.00,29.4,28.7,00.0,38.5,31.1,11.3,0000.0,0012.77,0004.01,0002.42
2022-05-15 09:38:00,,0828.7,5.00,0.00,29.4,28.7,00.0,38.5,31.1,11.2,0000.0,0013.23,0003.99,0002.42
2022-05-15 09:39:00,,0828.7,5.01,0.00,29.4,28.7,00.0,38.5,31.1,11.1,0000.0,0013.65,0003.96,0002.42
2022-05-15 09:40:00,,0828.7,4.98,0.00,29.4,28.7,00.0,38.4,31.1,11.1,0000.0,0013.14,0003.90,0002.42
2022-05-15 09:41:00,,0829.1,5.02,0.00,29.4,28.6,00.0,38.4,31.1,11.1,0000.0,0012.34,0003.86,0002.41
2022-05-15 09:42:00,,0829.2,4.99,0.00,29.4,28.6,00.0,38.4,31.1,11.0,0000.0,0012.31,0003.87,0002.38
2022-05-15 09:43:00,,0829.1,5.00,0.00,29.4,28.6,00.0,38.4,31.1,11.1,0000.0,0012.16,0003.86,0002.38
2022-05-15 09:44:00,,0829.3,5.01,0.00,29.3,28.6,00.0,38.4,31.0,11.1,0000.0,0011.83,0003.80,0002.37
2022-05-15 09:45:00,,0829.3,4.99,0.00,29.4,28.6,00.0,38.4,31.1,11.1,0000.0,0010.94,0003.75,0002.36
2022-05-15 09:46:00,,0829.3,5.01,0.00,29.4,28.6,00.0,38.4,31.1,11.1,0000.0,0010.13,0003.75,0002.34
2022-05-15 09:47:00,,0829.2,5.00,0.00,29.4,28.7,00.0,38.4,31.2,11.1,0000.0,0009.89,0003.75,0002.31
2022-05-15 09:48:00,,0829.3,4.98,0.00,29.4,28.7,00.0,38.4,31.2,10.9,0000.0,0009.96,0003.78,0002.30
2022-05-15 09:49:00,,0829.3,5.00,0.00,29.4,28.7,00.0,38.4,31.2,10.9,0000.0,0009.59,0003.79,0002.30
2022-05-15 09:50:00,,0829.0,5.00,0.00,29.4,28.7,00.0,38.4,31.2,10.8,0000.0,0009.78,0003.81,0002.29
2022-05-15 09:51:00,,0829.3,5.00,0.00,29.4,28.7,00.0,38.4,31.2,10.8,0000.0,0010.90,0003.82,0002.28
2022-05-15 09:52:00,,0829.2,4.99,0.00,29.4,28.7,00.0,38.4,31.2,10.9,0000.0,0011.13,0003.81,0002.28
2022-05-15 09:53:00,,0829.2,5.00,0.00,29.5,28.7,00.0,38.4,31.2,10.9,0000.0,0010.69,0003.78,0002.29
2022-05-15 09:54:00,,0829.3,5.01,0.00,29.5,28.7,00.0,38.4,31.2,10.8,0000.0,0010.62,0003.79,0002.31
2022-05-15 09:55:00,,0829.0,5.00,0.00,29.5,28.8,00.0,38.4,31.2,10.8,0000.0,0010.65,0003.80,0002.30
2022-05-15 09:56:00,,0829.2,5.01,0.00,29.5,28.8,00.0,38.4,31.3,10.8,0000.0,0010.80,0003.77,0002.30
2022-05-15 09:57:00,,0829.3,5.00,0.00,29.5,28.8,00.0,38.4,31.3,10.8,0000.0,0010.90,0003.72,0002.30
2022-05-15 09:58:00,,0829.2,4.99,0.00,29.5,28.8,00.0,38.4,31.3,10.9,0000.0,0010.89,0003.69,0002.30
2022-05-15 09:59:00,,0829.0,5.00,0.00,29.5,28.8,00.0,38.4,31.3,10.8,0000.0,0010.85,0003.66,0002.27
